Theta_e
342 342 342 343 343 345 346 348 349 350 350 351 350 351 350 351 352 350 350 351 352 354 354 355 356 356 357 357 357 356 355 354 353 353 352 352 350 350 349 350 350 350
342 344 348 346 347 350 350 349 349 350 350 351 351 351 350 350 349 349 348 349 351 353 355 355 355 355 355 355 355 354 353 353 352 354 352 351 351 350 349 350 350 351
343 344 345 346 345 347 350 351 351 351 350 351 351 351 350 351 349 349 349 349 350 350 353 354 354 355 355 354 354 354 353 352 352 353 354 352 351 350 350 350 349 349
344 345 345 346 347 348 349 351 351 351 351 350 350 350 351 350 350 349 348 353 351 350 351 351 353 353 353 353 353 352 352 352 352 352 351 351 350 349 348 348 348 348
344 346 347 348 349 350 351 350 350 351 351 351 351 352 352 351 350 349 349 349 350 350 350 351 350 351 352 352 352 351 351 350 350 350 348 345 345 345 345 346 347 346
346 348 349 349 350 351 350 349 350 350 351 351 351 352 351 350 349 349 349 348 346 346 346 346 347 347 347 347 348 348 348 348 348 347 344 343 341 340 340 342 344 343
348 350 351 353 353 352 352 350 350 352 350 351 352 350 350 349 349 349 348 347 346 345 342 341 341 341 341 342 342 342 343 344 344 342 340 339 340 339 339 340 342 341
349 350 351 351 351 349 350 350 349 349 350 352 350 351 350 348 349 348 348 348 346 345 344 341 341 342 341 341 339 338 338 338 338 338 338 338 339 338 339 340 341 341
349 349 350 349 349 347 347 347 347 347 349 348 349 348 349 348 348 347 347 346 344 344 343 343 343 341 339 338 338 338 337 337 338 338 338 338 338 339 340 341 340 342
348 348 347 347 346 345 345 344 345 344 347 344 344 344 345 347 348 346 346 345 343 343 342 341 339 339 338 339 338 338 337 337 337 337 338 338 338 338 339 339 339 339
345 345 345 345 345 346 348 349 347 346 345 346 344 343 343 344 345 346 345 343 341 340 339 339 339 340 341 341 341 341 340 339 340 340 340 340 340 340 342 341 338 337
345 345 346 346 347 347 348 347 344 343 343 344 345 345 346 345 344 344 344 343 343 343 343 344 344 344 344 344 344 344 343 342 342 342 341 341 340 340 339 340 337 336
345 345 346 347 348 346 346 346 345 345 343 343 345 346 346 345 345 345 348 348 349 348 348 348 348 348 347 346 345 345 344 344 343 343 342 340 341 341 340 340 340 339
346 346 346 346 345 345 345 345 345 344 345 347 348 348 349 349 349 349 349 350 350 350 350 351 350 349 349 348 348 347 346 346 344 344 344 343 343 344 344 343 342 342
345 346 345 346 347 347 346 344 344 345 346 348 348 348 348 348 348 348 347 346 346 346 347 348 347 347 347 347 347 347 346 346 345 344 344 343 343 343 343 344 344 344
344 346 345 346 347 346 344 344 345 346 346 343 343 343 343 346 346 344 344 343 342 343 343 344 344 345 346 348 348 349 348 346 346 345 345 344 344 344 344 344 344 344
344 343 342 342 343 344 344 343 342 342 342 341 341 340 341 342 342 339 339 340 339 340 340 340 341 341 343 340 340 342 345 344 343 342 343 343 343 342 342 343 344 344
340 339 338 338 338 338 339 339 339 338 338 338 337 337 339 341 337 337 337 337 337 337 337 337 338 340 336 337 339 338 341 341 340 339 339 339 339 339 339 340 341 342
336 336 336 336 336 336 337 336 336 335 335 335 334 336 338 335 334 334 335 335 335 335 335 337 337 337 334 335 335 335 335 340 339 338 337 337 337 337 338 338 339 340
335 335 334 334 333 333 333 333 333 332 333 333 335 334 333 332 333 333 333 333 334 334 335 335 335 336 333 333 333 332 333 335 336 336 335 335 335 336 336 337 338 338
333 333 333 331 331 331 331 330 330 330 330 332 332 332 332 332 332 332 332 334 334 333 332 332 333 332 329 330 328 327 329 333 335 334 334 334 334 335 335 336 337 337
330 330 330 329 329 329 328 328 328 328 328 329 333 332 331 331 331 331 331 330 330 330 330 330 331 328 327 326 325 325 328 333 332 332 332 332 333 334 335 335 336 336
329 329 329 328 327 326 326 326 326 326 327 330 329 328 328 328 329 329 330 329 330 330 330 329 330 329 325 323 320 320 327 330 330 331 331 331 331 333 334 334 335 336
328 327 326 326 325 324 325 325 326 326 327 330 328 326 326 327 328 328 329 330 329 328 329 330 331 332 322 317 317 318 324 325 326 327 328 328 330 332 333 333 334 335
327 327 326 325 324 324 325 325 325 327 328 327 326 326 326 327 329 328 328 329 329 330 332 328 326 326 320 317 316 317 321 322 322 321 322 324 325 327 329 330 332 334
326 327 327 326 324 325 325 326 328 326 325 325 326 326 326 326 327 327 326 327 328 327 324 321 319 320 321 316 316 316 318 321 319 319 318 319 320 321 321 324 325 328
Wind_Speed
10 8 9 9 10 10 9 8 8 8 7 6 6 7 7 7 5 5 6 6 6 6 6 7 6 6 5 6 6 6 6 7 6 6 6 6 6 7 7 7 7 7
11 10 9 8 7 7 7 8 8 8 7 7 7 6 6 5 7 6 6 6 5 6 5 5 6 6 6 6 6 6 6 6 8 4 6 8 7 6 7 9 8 6
10 9 10 11 11 12 10 8 7 6 7 7 7 6 6 5 5 5 5 5 5 6 7 7 7 7 7 7 6 6 7 7 8 7 7 8 7 7 7 7 6 8
11 11 11 12 10 10 7 6 6 6 5 5 7 7 6 5 5 6 6 7 7 7 7 7 8 7 8 8 7 7 8 8 9 7 7 6 6 7 7 6 6 6
12 11 10 10 9 7 5 6 7 6 7 8 6 5 5 5 5 6 5 6 6 7 6 7 7 7 7 6 7 7 8 7 8 8 7 8 7 7 7 6 7 7
8 8 8 9 8 6 6 7 7 7 7 6 6 4 4 4 4 4 5 6 6 7 7 6 7 7 7 7 6 7 8 7 7 7 8 8 8 6 5 6 7 8
3 3 3 1 1 1 3 4 4 4 4 4 2 4 5 5 5 5 6 7 7 6 7 7 6 7 6 6 6 7 7 8 8 7 8 8 7 7 6 6 7 8
7 6 6 6 6 6 5 4 4 5 6 6 7 6 6 6 6 6 6 7 8 7 6 7 6 7 7 5 7 7 8 6 7 8 8 9 7 7 8 6 7 8
4 4 5 6 7 6 6 6 5 5 4 6 7 7 5 5 6 6 6 6 6 7 8 7 7 7 6 6 6 7 7 7 7 8 8 8 8 9 9 7 6 7
3 3 5 5 6 6 7 6 6 4 2 4 5 5 5 5 4 4 5 5 6 8 9 8 8 7 6 5 6 6 6 7 6 6 7 7 8 8 8 7 7 6
8 8 8 8 9 7 7 4 3 2 2 4 4 3 4 5 4 4 5 6 7 8 8 7 8 7 6 5 5 4 6 6 6 6 6 7 7 7 7 6 5 8
7 7 6 6 6 5 5 5 5 4 4 4 4 4 3 3 4 4 5 6 6 6 6 6 6 5 5 5 5 4 4 4 5 5 6 6 6 6 6 7 8 11
6 6 7 7 6 6 6 5 2 1 3 3 3 3 4 4 4 4 3 3 4 4 4 5 5 5 4 5 5 5 5 5 5 6 7 6 6 7 7 7 8 8
6 3 2 4 4 4 3 3 3 2 2 3 1 1 0 1 2 2 1 1 2 3 3 3 4 4 4 4 4 4 4 5 5 5 6 6 7 7 7 7 8 8
6 5 4 4 4 4 2 4 2 1 0 3 4 4 3 3 3 4 4 4 3 3 3 3 3 4 3 4 5 5 5 6 6 6 6 7 7 7 7 8 8 8
4 3 3 4 5 5 3 4 4 4 4 5 5 4 4 4 5 4 3 3 3 4 3 3 3 3 5 9 9 6 5 5 5 6 6 6 7 7 7 7 8 7
5 5 5 7 6 4 4 5 5 4 4 3 3 3 3 2 1 3 3 3 4 4 5 4 4 4 9 10 10 10 8 5 6 6 6 7 7 8 8 7 7 7
7 7 6 5 4 4 4 4 4 5 5 5 5 6 5 5 6 5 5 5 4 4 5 5 5 7 11 11 11 11 10 8 6 6 6 6 7 7 7 7 7 7
7 7 5 4 3 3 3 4 4 4 3 4 5 4 4 5 5 5 5 4 4 5 5 5 5 7 11 12 12 13 13 12 6 6 7 7 7 7 7 7 7 7
5 5 5 3 3 3 4 4 4 3 3 3 3 4 4 4 4 5 5 5 6 6 6 6 7 9 12 13 13 13 13 12 8 8 7 7 7 7 7 7 7 7
4 4 4 4 4 4 4 4 3 3 4 4 4 5 5 6 6 6 6 6 6 6 6 6 6 11 12 13 13 13 13 12 7 7 7 8 7 8 8 8 8 7
4 5 5 5 5 5 5 5 5 5 5 5 4 4 4 4 4 5 5 6 6 6 6 7 7 10 12 12 12 12 14 8 8 8 8 8 9 8 8 7 8 8
5 5 4 4 3 4 5 4 4 4 4 3 4 4 4 4 5 5 5 5 6 6 7 9 8 10 12 12 11 12 9 6 7 7 8 9 9 9 9 8 8 8
4 4 5 5 5 5 5 4 4 3 4 3 4 5 5 5 5 5 5 6 7 9 8 11 10 9 10 11 11 11 11 7 5 6 6 7 8 9 9 8 9 13
5 6 6 5 5 5 4 5 6 5 5 5 5 5 5 5 7 6 7 6 7 9 12 10 8 9 10 11 11 10 9 7 6 6 7 7 7 7 6 6 7 8
5 5 5 5 6 6 7 6 6 6 7 6 5 4 5 5 7 7 8 8 7 7 6 7 8 8 10 12 11 11 10 8 6 6 8 9 8 8 8 7 6 7
Wind_Direction
216 208 214 210 216 217 214 207 207 208 217 220 219 226 222 235 232 226 229 227 224 228 231 228 229 231 228 223 220 222 221 225 232 216 211 209 218 219 230 229 224 223
212 209 213 215 222 222 218 210 206 205 214 213 220 222 225 225 229 217 227 232 234 242 247 247 239 235 235 229 221 221 231 223 232 205 211 213 225 217 230 232 228 223
212 209 209 210 215 217 215 206 202 207 211 215 217 219 224 211 226 213 218 217 222 225 226 225 226 227 222 225 224 227 232 229 232 217 206 219 218 213 228 227 224 219
211 210 212 218 220 221 209 192 200 206 210 215 217 218 215 215 206 204 212 213 216 223 222 218 219 217 212 216 212 220 230 237 240 233 217 219 214 213 221 216 222 225
208 210 214 219 221 218 185 192 198 197 204 219 232 229 222 220 218 222 219 220 221 228 227 226 226 230 222 219 210 223 228 232 239 231 226 228 223 204 218 205 212 223
215 215 216 218 220 208 197 200 201 200 209 216 226 241 250 247 249 249 244 237 224 227 232 230 225 224 218 222 217 223 231 229 237 227 225 232 232 207 216 212 214 223
238 234 247 350 48 122 195 207 204 204 202 202 176 222 218 222 234 251 256 246 240 233 234 235 227 229 225 222 219 228 229 232 238 222 218 226 233 234 219 218 221 225
186 182 174 157 157 162 181 186 194 204 199 189 194 197 190 189 198 216 232 255 262 266 261 248 241 239 239 221 223 222 229 217 223 218 217 226 222 233 232 219 217 216
173 176 162 159 163 168 176 186 191 190 180 170 188 194 175 181 216 232 247 253 268 273 273 268 262 260 258 237 228 222 227 229 220 214 215 218 219 226 229 222 214 219
137 139 150 155 160 166 165 170 171 175 201 214 206 180 183 207 203 250 266 266 263 270 268 266 268 261 249 229 226 225 232 238 230 223 224 226 228 233 234 228 222 233
167 176 172 173 168 167 154 157 131 111 259 294 292 243 182 185 199 200 240 251 248 249 255 254 254 257 263 265 254 230 230 236 241 240 236 239 240 241 240 223 230 252
181 190 172 160 161 145 146 151 147 183 211 215 235 281 285 239 214 195 207 227 238 245 252 267 276 277 272 270 266 253 238 238 250 257 260 256 252 246 243 236 240 239
175 195 196 190 167 148 140 139 142 200 255 234 211 208 225 237 225 216 217 223 253 268 275 280 289 289 283 280 278 281 275 268 265 256 256 256 249 246 243 239 235 230
184 186 12 42 81 111 138 146 139 158 250 278 291 7 19 326 10 34 29 0 306 294 285 294 291 296 295 288 283 273 268 261 250 251 249 246 246 242 240 237 234 234
41 32 43 30 28 25 76 123 136 165 51 35 42 36 26 20 24 34 23 13 353 333 311 304 298 278 267 261 254 252 242 245 239 239 240 240 237 239 235 235 234 232
60 61 43 51 57 63 40 67 67 49 39 35 29 23 16 14 25 18 17 338 318 311 303 288 272 257 266 267 270 272 260 258 256 250 249 248 250 249 244 237 237 236
98 74 62 55 64 63 28 36 44 46 54 54 36 21 20 359 4 323 322 322 323 317 309 298 289 283 281 276 277 277 276 262 256 257 249 250 250 250 252 249 244 241
89 76 70 65 63 61 56 52 42 35 25 12 1 357 346 355 347 342 341 332 317 307 293 285 278 276 277 278 276 274 273 274 262 257 250 251 253 253 255 256 255 250
82 89 90 77 68 67 55 55 57 45 23 357 340 327 340 340 327 325 311 303 288 281 275 272 276 274 279 284 285 286 286 286 279 269 265 260 257 258 255 255 255 257
72 83 90 98 74 58 56 52 42 22 339 319 315 323 309 299 298 296 302 302 301 298 296 288 282 280 278 279 281 281 281 280 273 271 267 262 260 259 258 258 252 252
100 101 88 56 39 40 41 39 24 2 351 340 332 325 323 318 315 311 295 286 280 277 276 278 274 278 278 278 278 278 277 279 276 280 279 280 275 269 267 261 255 253
86 73 55 42 36 30 30 15 3 353 331 316 306 288 278 278 278 273 280 285 283 284 283 285 286 280 283 285 290 297 309 301 301 294 291 286 281 272 263 261 262 259
57 68 65 57 48 36 20 0 343 322 306 292 299 299 301 300 299 295 295 291 296 297 300 305 301 301 305 327 349 357 349 330 319 307 296 287 279 276 271 266 259 253
81 73 56 39 32 26 3 340 319 299 312 331 334 331 327 321 316 308 309 308 306 317 310 311 314 329 7 24 8 4 351 339 320 311 302 299 293 285 280 271 268 264
40 43 38 29 22 7 353 351 347 341 342 348 342 337 322 317 322 322 316 316 314 318 334 354 353 349 352 356 354 348 344 329 320 310 298 289 296 299 297 289 283 273
33 33 28 25 11 3 358 352 350 353 349 341 331 327 324 320 325 324 324 330 341 353 0 358 341 335 336 334 333 329 329 328 317 311 305 304 302 298 292 281 274 278